FW6905 Weather Reports


Display with metric or nautical units.
time (UTC)temp
F
wind
direction
speed
MPH
gust
MPH
rain 1hr
in
rain 24hr
in
rain mn
in
humidity
%
barometer
mb
20260902013006 74 25 9.0 17.0 0.00 0.00 0.00 49 1020.8
20260902012505 74 18 4.0 13.0 0.00 0.00 0.00 49 1021.8
20260902012006 74 18 6.0 15.0 0.00 0.00 0.00 50 1021.8
20260902011506 75 8 4.0 15.0 0.00 0.00 0.00 49 1021.8
20260902011006 75 342 10.0 14.0 0.00 0.00 0.00 50 1021.8
20260902010506 75 335 4.0 9.0 0.00 0.00 0.00 50 1021.8
20260902010006 75 5 2.0 14.0 0.00 0.00 0.00 51 1021.8
20260902005506 75 6 2.0 14.0 0.00 0.00 0.00 50 1021.8
20260902005006 74 2 4.0 11.0 0.00 0.00 0.00 52 1021.8
20260902004506 74 345 3.0 14.0 0.00 0.00 0.00 52 1021.8
20260902004006 73 342 9.0 14.0 0.00 0.00 0.00 53 1021.8
20260902003506 72 358 7.0 11.0 0.00 0.00 0.00 54 1021.8
20260902002505 71 25 5.0 10.0 0.00 0.00 0.00 57 1021.8
20260902002005 71 126 3.0 6.0 0.00 0.00 0.00 59 1021.8
20260902001006 71 94 1.0 6.0 0.00 0.00 0.00 59 1021.8
20260902000506 71 104 3.0 6.0 0.00 0.00 0.00 59 1021.8
20260902000006 71 80 2.0 4.0 0.00 0.00 0.00 59 1021.8
20260901234506 71 52 2.0 2.0 0.00 0.00 0.00 59 1021.8
20260901234005 71 67 1.0 3.0 0.00 0.00 0.00 59 1021.8
20260901233506 71 129 1.0 4.0 0.00 0.00 0.00 58 1021.8
20260901232505 72 165 2.0 4.0 0.00 0.00 0.00 58 1021.8
20260901232006 72 171 1.0 6.0 0.00 0.00 0.00 59 1021.8
20260901231006 72 274 2.0 4.0 0.00 0.00 0.00 59 1022.8
20260901225506 72 120 5.0 11.0 0.00 0.00 0.00 60 1021.8
20260901225005 71 108 5.0 9.0 0.00 0.00 0.00 61 1021.8
20260901224506 70 108 7.0 9.0 0.00 0.00 0.00 62 1021.8
20260901224006 70 136 1.0 5.0 0.00 0.00 0.00 63 1021.8
20260901223505 69 145 2.0 5.0 0.00 0.00 0.00 64 1021.8
20260901223006 69 33 3.0 4.0 0.00 0.00 0.00 65 1021.8
20260901222506 69 68 0.0 4.0 0.00 0.00 0.00 64 1021.8
20260901222005 69 97 1.0 6.0 0.00 0.00 0.00 65 1021.8
20260901221506 69 78 3.0 6.0 0.00 0.00 0.00 65 1021.8
20260901221006 69 83 0.0 4.0 0.00 0.00 0.00 65 1021.8
20260901220506 69 76 2.0 4.0 0.00 0.00 0.00 65 1021.8
20260901220012 69 27 2.0 3.0 0.00 0.00 0.00 64 1021.8
20260901215506 69 351 1.0 4.0 0.00 0.00 0.00 64 1021.8
20260901215005 69 340 2.0 4.0 0.00 0.00 0.00 64 1021.8
20260901214006 70 231 0.0 3.0 0.00 0.00 0.00 63 1020.8
20260901213505 70 154 2.0 6.0 0.00 0.00 0.00 63 1020.8
20260901213005 70 55 2.0 6.0 0.00 0.00 0.00 61 1020.8
20260901212506 70 76 3.0 6.0 0.00 0.00 0.00 61 1020.8
20260901212006 70 74 2.0 4.0 0.00 0.00 0.00 60 1020.8
20260901211506 70 67 3.0 4.0 0.00 0.00 0.00 61 1020.8
20260901211006 70 76 3.0 7.0 0.00 0.00 0.00 61 1020.8
20260901210505 70 77 3.0 7.0 0.00 0.00 0.00 61 1020.8
20260901210006 70 69 5.0 6.0 0.00 0.00 0.00 61 1020.8
20260901205505 70 74 3.0 6.0 0.00 0.00 0.00 61 1020.8
20260901205006 70 73 4.0 6.0 0.00 0.00 0.00 61 1020.8
20260901204506 70 73 4.0 6.0 0.00 0.00 0.00 60 1020.8
20260901204006 70 71 3.0 6.0 0.00 0.00 0.00 61 1021.8
20260901203506 70 62 3.0 5.0 0.00 0.00 0.00 60 1021.8
20260901203006 70 53 2.0 5.0 0.00 0.00 0.00 60 1021.8
20260901202006 71 66 3.0 5.0 0.00 0.00 0.00 61 1020.8
20260901201505 71 60 3.0 5.0 0.00 0.00 0.00 61 1020.8
20260901201006 71 73 3.0 4.0 0.00 0.00 0.00 61 1021.8
20260901200506 71 60 1.0 4.0 0.00 0.00 0.00 60 1021.8
20260901200006 71 42 2.0 4.0 0.00 0.00 0.00 60 1021.8
20260901195505 71 56 0.0 2.0 0.00 0.00 0.00 61 1020.8
20260901195006 71 47 2.0 4.0 0.00 0.00 0.00 60 1020.8
20260901194506 71 53 2.0 4.0 0.00 0.00 0.00 60 1020.8
20260901193005 71 40 2.0 4.0 0.00 0.00 0.00 60 1020.8
20260901192006 71 55 1.0 4.0 0.00 0.00 0.00 60 1020.8
20260901191005 71 57 1.0 2.0 0.00 0.00 0.00 60 1020.8
20260901190505 72 59 0.0 3.0 0.00 0.00 0.00 59 1020.8
20260901190006 72 45 2.0 3.0 0.00 0.00 0.00 59 1020.8
20260901185505 72 74 2.0 3.0 0.00 0.00 0.00 58 1020.8
20260901184506 73 103 0.0 4.0 0.00 0.00 0.00 57 1020.8
20260901184006 73 81 0.0 4.0 0.00 0.00 0.00 56 1020.8
20260901183505 73 53 3.0 4.0 0.00 0.00 0.00 55 1020.8
20260901182506 74 52 2.0 3.0 0.00 0.00 0.00 53 1020.8
20260901182006 74 62 2.0 3.0 0.00 0.00 0.00 53 1020.8
20260901181505 74 82 2.0 3.0 0.00 0.00 0.00 53 1020.8
20260901181006 75 92 2.0 3.0 0.00 0.00 0.00 53 1019.8
20260901180506 75 77 2.0 3.0 0.00 0.00 0.00 52 1019.8
20260901180005 76 55 2.0 3.0 0.00 0.00 0.00 51 1019.8
20260901175505 76 43 0.0 3.0 0.00 0.00 0.00 50 1018.8
20260901175006 77 62 2.0 3.0 0.00 0.00 0.00 49 1018.8
20260901174506 77 89 0.0 2.0 0.00 0.00 0.00 47 1018.8
20260901174008 78 79 1.0 2.0 0.00 0.00 0.00 47 1018.8
20260901173505 78 68 0.0 2.0 0.00 0.00 0.00 45 1018.8
20260901172505 80 56 0.0 3.0 0.00 0.00 0.00 43 1018.8
20260901172005 80 49 2.0 4.0 0.00 0.00 0.00 41 1018.8
20260901171505 81 68 3.0 4.0 0.00 0.00 0.00 40 1018.8
20260901171006 81 91 1.0 4.0 0.00 0.00 0.00 39 1019.8
20260901170505 82 131 3.0 4.0 0.00 0.00 0.00 39 1019.8
20260901170006 82 161 2.0 3.0 0.00 0.00 0.00 39 1019.8
20260901165505 83 347 1.0 3.0 0.00 0.00 0.00 38 1019.8
20260901165005 83 355 1.0 6.0 0.00 0.00 0.00 35 1019.8
20260901164505 83 354 3.0 6.0 0.00 0.00 0.00 34 1019.8
20260901164006 84 2 3.0 6.0 0.00 0.00 0.00 35 1019.8
20260901163005 84 2 4.0 6.0 0.00 0.00 0.00 34 1019.8
20260901162006 84 358 1.0 7.0 0.00 0.00 0.00 33 1019.8
20260901161506 84 12 3.0 6.0 0.00 0.00 0.00 34 1019.8
20260901160505 84 38 4.0 6.0 0.00 0.00 0.00 33 1019.8
20260901160006 85 44 3.0 6.0 0.00 0.00 0.00 33 1019.8
20260901155505 85 54 5.0 6.0 0.00 0.00 0.00 33 1019.8
20260901155005 85 49 4.0 6.0 0.00 0.00 0.00 33 1019.8
20260901154506 85 40 3.0 5.0 0.00 0.00 0.00 33 1019.8
20260901154006 85 42 2.0 6.0 0.00 0.00 0.00 33 1020.8
20260901153505 85 28 4.0 6.0 0.00 0.00 0.00 33 1020.8
20260901153005 85 13 2.0 6.0 0.00 0.00 0.00 33 1020.8
20260901152506 85 41 2.0 6.0 0.00 0.00 0.00 33 1019.8
20260901152005 85 74 4.0 5.0 0.00 0.00 0.00 33 1019.8
20260901151006 85 47 2.0 6.0 0.00 0.00 0.00 33 1019.8
20260901150505 85 54 4.0 8.0 0.00 0.00 0.00 33 1019.8
20260901150006 85 56 2.0 8.0 0.00 0.00 0.00 33 1019.8
20260901144506 85 50 4.0 8.0 0.00 0.00 0.00 33 1020.8
20260901143506 85 42 5.0 8.0 0.00 0.00 0.00 33 1020.8
20260901143006 85 49 3.0 9.0 0.00 0.00 0.00 32 1020.8
20260901142505 85 49 3.0 11.0 0.00 0.00 0.00 33 1019.8
20260901142006 85 41 6.0 11.0 0.00 0.00 0.00 32 1019.8
20260901141505 85 43 7.0 10.0 0.00 0.00 0.00 32 1019.8
20260901141005 85 60 5.0 10.0 0.00 0.00 0.00 33 1020.8
20260901140506 85 53 2.0 9.0 0.00 0.00 0.00 33 1020.8
20260901135505 85 48 6.0 11.0 0.00 0.00 0.00 32 1020.8
20260901135006 85 49 8.0 10.0 0.00 0.00 0.00 32 1020.8
20260901134005 85 59 6.0 9.0 0.00 0.00 0.00 33 1020.8
20260901133506 85 62 4.0 9.0 0.00 0.00 0.00 33 1020.8
20260901133005 85 51 5.0 10.0 0.00 0.00 0.00 32 1020.8
20260901132506 85 49 3.0 10.0 0.00 0.00 0.00 32 1020.8
20260901131505 85 34 5.0 11.0 0.00 0.00 0.00 32 1020.8
20260901131005 85 43 6.0 11.0 0.00 0.00 0.00 32 1021.8
20260901130506 85 47 6.0 12.0 0.00 0.00 0.00 32 1021.8
20260901125505 86 58 7.0 13.0 0.00 0.00 0.00 32 1020.8
20260901125005 86 53 8.0 12.0 0.00 0.00 0.00 32 1020.8
20260901124506 86 41 5.0 11.0 0.00 0.00 0.00 32 1020.8
20260901124006 86 49 7.0 11.0 0.00 0.00 0.00 32 1021.8
20260901123505 86 48 9.0 13.0 0.00 0.00 0.00 32 1021.8
20260901123005 86 47 8.0 13.0 0.00 0.00 0.00 32 1021.8
20260901122505 86 48 6.0 12.0 0.00 0.00 0.00 33 1021.8
20260901122005 86 51 4.0 12.0 0.00 0.00 0.00 32 1021.8
20260901121005 86 55 6.0 13.0 0.00 0.00 0.00 33 1021.8
20260901120506 86 47 7.0 13.0 0.00 0.00 0.00 33 1021.8
20260901115505 85 45 4.0 14.0 0.00 0.00 0.00 32 1021.8
20260901115006 85 52 8.0 14.0 0.00 0.00 0.00 33 1021.8
20260901114505 85 51 8.0 14.0 0.00 0.00 0.00 32 1021.8
20260901114006 85 46 9.0 14.0 0.00 0.00 0.00 33 1021.8
20260901113505 85 45 2.0 12.0 0.00 0.00 0.00 33 1021.8
20260901113005 85 56 5.0 12.0 0.00 0.00 0.00 33 1021.8
20260901112505 85 51 4.0 12.0 0.00 0.00 0.00 33 1021.8
20260901112006 85 47 4.0 15.0 0.00 0.00 0.00 34 1021.8
20260901111505 85 52 6.0 15.0 0.00 0.00 0.00 33 1021.8
20260901111005 85 52 5.0 11.0 0.00 0.00 0.00 34 1021.8
20260901110505 85 51 5.0 11.0 0.00 0.00 0.00 34 1021.8
20260901110006 85 55 4.0 9.0 0.00 0.00 0.00 35 1021.8
20260901105505 85 59 6.0 11.0 0.00 0.00 0.00 35 1021.8
20260901104005 84 73 5.0 11.0 0.00 0.00 0.00 35 1021.8
20260901103506 84 74 4.0 11.0 0.00 0.00 0.00 34 1021.8
20260901103005 84 71 6.0 12.0 0.00 0.00 0.00 35 1021.8
20260901102505 84 70 7.0 12.0 0.00 0.00 0.00 35 1021.8
20260901102005 84 78 6.0 12.0 0.00 0.00 0.00 36 1021.8
20260901101505 84 68 6.0 12.0 0.00 0.00 0.00 36 1021.8
20260901100506 83 67 7.0 13.0 0.00 0.00 0.00 37 1021.8
20260901100005 83 59 8.0 13.0 0.00 0.00 0.00 36 1021.8
20260901095505 83 65 7.0 12.0 0.00 0.00 0.00 37 1021.8
20260901094005 82 67 11.0 14.0 0.00 0.00 0.00 37 1022.8
20260901093506 82 67 6.0 12.0 0.00 0.00 0.00 39 1022.8
20260901092505 81 63 6.0 12.0 0.00 0.00 0.00 41 1022.8
20260901092005 80 52 3.0 12.0 0.00 0.00 0.00 41 1022.8
20260901090506 79 52 5.0 11.0 0.00 0.00 0.00 41 1022.8
20260901085505 79 52 6.0 9.0 0.00 0.00 0.00 42 1021.8
20260901085005 79 52 6.0 10.0 0.00 0.00 0.00 43 1021.8
20260901084505 79 43 6.0 10.0 0.00 0.00 0.00 44 1021.8
20260901084005 78 35 3.0 9.0 0.00 0.00 0.00 44 1021.8
20260901083505 78 39 5.0 13.0 0.00 0.00 0.00 43 1021.8
20260901083005 78 43 5.0 13.0 0.00 0.00 0.00 42 1021.8
20260901082505 78 32 3.0 9.0 0.00 0.00 0.00 43 1021.8
20260901082006 78 6 5.0 9.0 0.00 0.00 0.00 43 1021.8
20260901081505 78 12 6.0 9.0 0.00 0.00 0.00 43 1021.8
20260901081005 78 12 6.0 9.0 0.00 0.00 0.00 44 1020.8
20260901080505 77 9 4.0 11.0 0.00 0.00 0.00 44 1020.8
20260901080006 77 24 7.0 11.0 0.00 0.00 0.00 44 1020.8
20260901075505 77 29 3.0 11.0 0.00 0.00 0.00 45 1021.8
20260901074505 77 15 4.0 9.0 0.00 0.00 0.00 47 1021.8
20260901074005 76 8 3.0 8.0 0.00 0.00 0.00 47 1021.8
20260901073505 76 340 5.0 8.0 0.00 0.00 0.00 46 1021.8
20260901073005 76 323 4.0 8.0 0.00 0.00 0.00 48 1021.8
20260901072505 76 346 3.0 14.0 0.00 0.00 0.00 48 1021.8
20260901072005 75 345 4.0 14.0 0.00 0.00 0.00 48 1021.8
20260901071505 75 350 4.0 10.0 0.00 0.00 0.00 48 1021.8
20260901071005 75 355 3.0 8.0 0.00 0.00 0.00 49 1021.8
20260901070506 75 331 2.0 12.0 0.00 0.00 0.00 49 1021.8
20260901070005 75 320 3.0 12.0 0.00 0.00 0.00 48 1021.8
20260901065505 75 318 7.0 11.0 0.00 0.00 0.00 49 1021.8
20260901065005 75 331 5.0 9.0 0.00 0.00 0.00 50 1021.8
20260901064505 75 348 4.0 9.0 0.00 0.00 0.00 49 1021.8
20260901064005 75 345 4.0 12.0 0.00 0.00 0.00 49 1021.8
20260901063506 75 342 4.0 12.0 0.00 0.00 0.00 49 1021.8
20260901063005 75 351 6.0 11.0 0.00 0.00 0.00 49 1021.8
20260901062505 76 6 5.0 11.0 0.00 0.00 0.00 49 1020.8
20260901062005 75 356 4.0 7.0 0.00 0.00 0.00 49 1020.8
20260901061505 75 336 3.0 7.0 0.00 0.00 0.00 51 1020.8
20260901061005 75 332 4.0 13.0 0.00 0.00 0.00 52 1020.8
20260901060005 75 339 6.0 10.0 0.00 0.00 0.00 52 1020.8
20260901055005 74 349 3.0 9.0 0.00 0.00 0.00 53 1020.8
20260901054505 74 8 6.0 12.0 0.00 0.00 0.00 53 1020.8
20260901054005 74 8 3.0 12.0 0.00 0.00 0.00 53 1020.8
20260901053506 73 352 9.0 12.0 0.00 0.00 0.00 53 1020.8
20260901053005 73 326 5.0 9.0 0.00 0.00 0.00 56 1020.8
20260901052505 73 325 3.0 9.0 0.00 0.00 0.00 58 1020.8
20260901052005 72 331 6.0 8.0 0.00 0.00 0.00 58 1020.8
20260901051505 72 329 5.0 7.0 0.00 0.00 0.00 59 1020.8
20260901051005 72 333 4.0 7.0 0.00 0.00 0.00 60 1020.8
20260901050506 71 343 4.0 7.0 0.00 0.00 0.00 61 1020.8
20260901045505 70 324 4.0 8.0 0.00 0.00 0.00 64 1019.8
20260901045006 69 4 4.0 6.0 0.00 0.00 0.00 66 1019.8
20260901044506 69 351 5.0 6.0 0.00 0.00 0.00 69 1019.8
20260901044005 68 319 4.0 7.0 0.00 0.00 0.00 73 1019.8
20260901043005 68 307 2.0 4.0 0.00 0.00 0.00 73 1019.8
20260901042005 69 132 2.0 4.0 0.00 0.00 0.00 74 1018.8
20260901041505 69 72 0.0 3.0 0.00 0.00 0.00 74 1018.8
20260901041006 69 88 1.0 5.0 0.00 0.00 0.00 75 1019.8
20260901040505 69 83 4.0 5.0 0.00 0.00 0.00 75 1019.8
20260901040005 69 327 0.0 3.0 0.00 0.00 0.00 76 1019.8
20260901035505 69 314 0.0 4.0 0.00 0.00 0.00 76 1019.8
20260901035005 69 34 2.0 4.0 0.00 0.00 0.00 76 1019.8
20260901034505 69 56 1.0 4.0 0.00 0.00 0.00 75 1019.8
20260901034004 69 67 3.0 4.0 0.00 0.00 0.00 77 1019.8
20260901033505 69 70 3.0 4.0 0.00 0.00 0.00 77 1019.8
20260901032505 69 48 2.0 3.0 0.00 0.00 0.00 77 1019.8
20260901032006 69 71 2.0 3.0 0.00 0.00 0.00 79 1019.8
20260901031505 69 58 1.0 3.0 0.00 0.00 0.00 79 1019.8
20260901031005 69 44 2.0 3.0 0.00 0.00 0.00 80 1019.8
20260901030505 69 226 2.0 3.0 0.00 0.00 0.00 80 1019.8
20260901030005 70 237 2.0 3.0 0.00 0.00 0.00 80 1019.8
20260901025505 70 28 2.0 3.0 0.00 0.00 0.00 79 1019.8
20260901024505 70 81 2.0 4.0 0.00 0.00 0.00 80 1019.8
20260901024005 70 72 3.0 4.0 0.00 0.00 0.00 80 1019.8
20260901023005 69 68 2.0 4.0 0.00 0.00 0.00 81 1019.8
20260901022505 69 53 3.0 4.0 0.00 0.00 0.00 82 1019.8
20260901022005 69 53 2.0 3.0 0.00 0.00 0.00 82 1019.8
20260901021505 69 97 2.0 4.0 0.00 0.00 0.00 84 1019.8
20260901021005 70 135 2.0 4.0 0.00 0.00 0.00 84 1018.8
20260901020005 70 291 2.0 3.0 0.00 0.00 0.00 81 1018.8
20260901015505 70 263 0.0 3.0 0.00 0.00 0.00 82 1018.8
20260901015005 70 223 2.0 3.0 0.00 0.00 0.00 81 1018.8
20260901014505 70 126 1.0 4.0 0.00 0.00 0.00 81 1018.8
20260901013505 70 102 1.0 5.0 0.00 0.00 0.00 81 1019.8